Date String (YYYY-MM-DD hh:mm:ss) UTC,Instrument flags,absolute air pressure of the measurement (hPa),sample flow rate (lpm),inlet stack bypass flow (lpm),air temperature of the measurement (°C),ambient temperature measured by the external sensor (°C),aerosol sample conditioner tube jacket temperature (°C),OPC LED temperature (°C),internal box temperature (°C),relative humidity of the measurement (%),span deviation,mass concentration of particles derived from Lorenz-Mie calculation of OPC scattering (μg/m³),mass concentration of particles derived from Lorenz-Mie calculation of OPC scattering (μg/m³),mass concentration of particles derived from Lorenz-Mie calculation of OPC scattering (μg/m³)
DateTimeUTC,F1_M11,P_M11,Q1_M11,Q2_M11,T1_M11,T2_M11,T3_M11,T4_M11,T5_M11,U1_M11,ZSPAN_M11,X0_M11,X2_M11,X1_M11
2024-05-24 20:00:00,SystemResetWarning,0824.4,4.99,000.00,027.1,026.3,000.0,035.3,028.8,012.7,0000.0,0010.50,0002.51,0001.05
2024-05-24 20:01:00,SystemResetWarning,0824.5,4.99,000.00,027.1,026.3,000.0,035.3,028.8,012.5,0000.0,0010.49,0002.59,0001.05
2024-05-24 20:02:00,SystemResetWarning,0824.5,5.00,000.00,027.1,026.3,000.0,035.3,028.8,013.0,0000.0,0010.91,0002.62,0001.06
2024-05-24 20:03:00,SystemResetWarning,0824.4,5.01,000.00,027.1,026.3,000.0,035.3,028.8,012.6,0000.0,0011.60,0002.67,0001.06
2024-05-24 20:04:00,SystemResetWarning,0824.4,5.01,000.00,027.1,026.4,000.0,035.3,028.8,013.1,0000.0,0012.34,0002.71,0001.08
2024-05-24 20:05:00,SystemResetWarning,0824.5,4.99,000.00,027.1,026.4,000.0,035.3,028.8,012.7,0000.0,0012.21,0002.69,0001.09
2024-05-24 20:06:00,SystemResetWarning,0824.5,4.99,000.00,027.1,026.4,000.0,035.3,028.9,012.9,0000.0,0011.59,0002.64,0001.07
2024-05-24 20:07:00,SystemResetWarning,0824.6,5.00,000.00,027.1,026.4,000.0,035.3,028.9,012.3,0000.0,0011.53,0002.64,0001.08
2024-05-24 20:08:00,SystemResetWarning,0824.7,5.00,000.00,027.1,026.4,000.0,035.3,028.9,012.8,0000.0,0011.88,0002.64,0001.08
2024-05-24 20:09:00,SystemResetWarning,0824.7,5.00,000.00,027.1,026.4,000.0,035.3,028.9,012.7,0000.0,0013.90,0002.85,0001.09
2024-05-24 20:10:00,SystemResetWarning,0824.7,5.01,000.00,027.2,026.4,000.0,035.3,028.9,012.5,0000.0,0015.23,0002.93,0001.10
2024-05-24 20:11:00,SystemResetWarning,0824.6,5.01,000.00,027.2,026.4,000.0,035.3,028.9,013.3,0000.0,0015.97,0002.92,0001.09
2024-05-24 20:12:00,SystemResetWarning,0824.5,5.00,000.00,027.2,026.4,000.0,035.4,028.9,012.3,0000.0,0016.42,0002.94,0001.09
2024-05-24 20:13:00,SystemResetWarning,0824.5,4.99,000.00,027.2,026.5,000.0,035.4,029.0,012.1,0000.0,0015.64,0002.95,0001.09
2024-05-24 20:14:00,SystemResetWarning,0824.5,5.00,000.00,027.2,026.5,000.0,035.4,028.9,012.2,0000.0,0014.99,0002.95,0001.09
2024-05-24 20:15:00,SystemResetWarning,0824.5,5.01,000.00,027.2,026.5,000.0,035.4,029.0,011.9,0000.0,0014.28,0002.97,0001.08
2024-05-24 20:16:00,SystemResetWarning,0824.5,5.01,000.00,027.2,026.5,000.0,035.4,029.0,012.2,0000.0,0014.66,0003.01,0001.07
2024-05-24 20:17:00,SystemResetWarning,0824.5,4.98,000.00,027.2,026.5,000.0,035.4,029.0,013.5,0000.0,0015.19,0003.07,0001.06
2024-05-24 20:18:00,SystemResetWarning,0824.4,5.01,000.00,027.2,026.5,000.0,035.4,029.0,012.3,0000.0,0015.37,0003.08,0001.05
2024-05-24 20:19:00,SystemResetWarning,0824.4,5.01,000.00,027.3,026.5,000.0,035.4,029.0,012.9,0000.0,0015.04,0003.02,0001.05
2024-05-24 20:20:00,SystemResetWarning,0824.3,5.00,000.00,027.3,026.6,000.0,035.5,029.0,013.2,0000.0,0013.31,0002.86,0001.05
2024-05-24 20:21:00,SystemResetWarning,0824.4,5.00,000.00,027.3,026.6,000.0,035.5,029.0,012.9,0000.0,0011.80,0002.83,0001.06
2024-05-24 20:22:00,SystemResetWarning,0824.4,5.00,000.00,027.3,026.6,000.0,035.5,029.1,012.2,0000.0,0011.48,0002.77,0001.07
2024-05-24 20:23:00,SystemResetWarning,0824.3,4.99,000.00,027.3,026.6,000.0,035.5,029.1,011.7,0000.0,0011.12,0002.76,0001.07
2024-05-24 20:24:00,SystemResetWarning,0824.3,4.99,000.00,027.3,026.6,000.0,035.5,029.1,011.8,0000.0,0011.45,0002.73,0001.07
2024-05-24 20:25:00,SystemResetWarning,0824.3,4.99,000.00,027.3,026.6,000.0,035.5,029.1,011.7,0000.0,0011.25,0002.69,0001.08
2024-05-24 20:26:00,SystemResetWarning,0824.4,5.00,000.00,027.3,026.6,000.0,035.5,029.1,011.9,0000.0,0011.23,0002.67,0001.09
2024-05-24 20:27:00,SystemResetWarning,0824.4,5.00,000.00,027.3,026.6,000.0,035.5,029.1,012.4,0000.0,0011.78,0002.62,0001.10
2024-05-24 20:28:00,SystemResetWarning,0824.3,5.00,000.00,027.4,026.6,000.0,035.6,029.1,012.5,0000.0,0011.34,0002.56,0001.12
2024-05-24 20:29:00,SystemResetWarning,0824.4,5.00,000.00,027.4,026.7,000.0,035.6,029.1,012.1,0000.0,0011.95,0002.58,0001.13
2024-05-24 20:30:00,SystemResetWarning,0824.4,5.00,000.00,027.4,026.7,000.0,035.6,029.1,011.8,0000.0,0012.09,0002.64,0001.13
2024-05-24 20:31:00,SystemResetWarning,0824.4,5.01,000.00,027.4,026.7,000.0,035.6,029.1,011.9,0000.0,0011.61,0002.62,0001.12
2024-05-24 20:32:00,SystemResetWarning,0824.4,5.00,000.00,027.4,026.7,000.0,035.6,029.2,012.2,0000.0,0013.05,0002.66,0001.12
2024-05-24 20:33:00,SystemResetWarning,0824.4,4.99,000.00,027.4,026.7,000.0,035.6,029.2,011.5,0000.0,0013.08,0002.65,0001.10
2024-05-24 20:34:00,SystemResetWarning,0824.4,4.99,000.00,027.4,026.7,000.0,035.6,029.2,012.4,0000.0,0013.47,0002.57,0001.10
2024-05-24 20:35:00,SystemResetWarning,0824.4,5.01,000.00,027.5,026.7,000.0,035.6,029.2,012.3,0000.0,0013.19,0002.54,0001.10
2024-05-24 20:36:00,SystemResetWarning,0824.4,5.01,000.00,027.5,026.7,000.0,035.7,029.2,012.9,0000.0,0013.91,0002.57,0001.09
2024-05-24 20:37:00,SystemResetWarning,0824.4,5.00,000.00,027.5,026.8,000.0,035.7,029.2,013.4,0000.0,0014.75,0002.58,0001.10
2024-05-24 20:38:00,SystemResetWarning,0824.4,4.99,000.00,027.5,026.8,000.0,035.7,029.2,012.7,0000.0,0014.47,0002.62,0001.09
2024-05-24 20:39:00,SystemResetWarning,0824.4,5.00,000.00,027.5,026.8,000.0,035.7,029.2,012.6,0000.0,0015.25,0002.72,0001.09
2024-05-24 20:40:00,SystemResetWarning,0824.4,5.00,000.00,027.5,026.8,000.0,035.7,029.2,011.3,0000.0,0015.24,0002.65,0001.09
2024-05-24 20:41:00,SystemResetWarning,0824.3,5.00,000.00,027.5,026.8,000.0,035.7,029.3,011.4,0000.0,0015.78,0002.62,0001.10
2024-05-24 20:42:00,SystemResetWarning,0824.3,5.00,000.00,027.5,026.8,000.0,035.7,029.3,012.1,0000.0,0016.17,0002.58,0001.10
2024-05-24 20:43:00,SystemResetWarning,0824.3,5.01,000.00,027.6,026.8,000.0,035.7,029.3,011.8,0000.0,0015.25,0002.55,0001.10
2024-05-24 20:44:00,SystemResetWarning,0824.3,5.00,000.00,027.6,026.9,000.0,035.8,029.3,012.2,0000.0,0015.78,0002.58,0001.11
2024-05-24 20:45:00,SystemResetWarning,0824.2,5.01,000.00,027.6,026.9,000.0,035.8,029.3,011.7,0000.0,0016.25,0002.63,0001.13
2024-05-24 20:46:00,SystemResetWarning,0824.2,5.00,000.00,027.6,026.9,000.0,035.8,029.3,011.3,0000.0,0017.03,0002.82,0001.14
2024-05-24 20:47:00,SystemResetWarning,0824.1,5.00,000.00,027.6,026.9,000.0,035.8,029.4,011.0,0000.0,0016.57,0002.81,0001.15
2024-05-24 20:48:00,SystemResetWarning,0824.2,5.00,000.00,027.6,026.9,000.0,035.8,029.4,012.2,0000.0,0015.57,0002.78,0001.16
2024-05-24 20:49:00,SystemResetWarning,0824.2,4.99,000.00,027.6,026.9,000.0,035.8,029.4,012.4,0000.0,0014.95,0002.72,0001.16
2024-05-24 20:50:00,SystemResetWarning,0824.0,4.99,000.00,027.6,027.0,000.0,035.8,029.4,011.4,0000.0,0014.75,0002.67,0001.16
2024-05-24 20:51:00,SystemResetWarning,0824.0,5.00,000.00,027.7,027.0,000.0,035.9,029.4,011.7,0000.0,0013.74,0002.69,0001.17
2024-05-24 20:52:00,SystemResetWarning,0824.0,5.00,000.00,027.7,027.0,000.0,035.9,029.4,011.4,0000.0,0014.11,0002.72,0001.16
2024-05-24 20:53:00,SystemResetWarning,0824.0,5.02,000.00,027.7,027.0,000.0,035.9,029.4,011.1,0000.0,0013.60,0002.74,0001.16
2024-05-24 20:54:00,SystemResetWarning,0823.9,5.00,000.00,027.7,027.0,000.0,035.9,029.4,010.6,0000.0,0013.15,0002.75,0001.16
2024-05-24 20:55:00,SystemResetWarning,0824.0,5.00,000.00,027.7,027.0,000.0,035.9,029.5,010.8,0000.0,0012.64,0002.78,0001.17
2024-05-24 20:56:00,SystemResetWarning,0824.0,5.00,000.00,027.7,027.0,000.0,035.9,029.5,011.9,0000.0,0012.16,0002.78,0001.17
2024-05-24 20:57:00,SystemResetWarning,0824.0,5.00,000.00,027.8,027.0,000.0,035.9,029.5,011.1,0000.0,0012.57,0002.68,0001.17
2024-05-24 20:58:00,SystemResetWarning,0824.0,5.00,000.00,027.8,027.1,000.0,036.0,029.5,011.2,0000.0,0013.29,0002.69,0001.16
2024-05-24 20:59:00,SystemResetWarning,0824.0,5.01,000.00,027.8,027.1,000.0,036.0,029.5,010.5,0000.0,0014.49,0002.69,0001.15
